Location: Old Broadwell Mill Observatory
(33.8015°N, 85.8137°W)
Time: 12:59:13
(UTC-05:00)

Daily predictions for brighter satellites

Satellite Brightness Start Highest point End
(mag) Time Altitude Azimuth Time Altitude Azimuth Time Altitude Azimuth
BREEZE-M DEB (TANK) 4.0 20:03:29 10° NW 20:07:31 74° SW 20:23:07 10° SE
Cosmos 1726 Rocket 3.8 20:10:06 10° N 20:14:32 78° W 20:18:54 10° S
CZ-2D R/B 3.3 20:19:25 10° SSE 20:23:19 86° ENE 20:27:14 10° N
Milstar 3 Cent rocket 3.9 20:17:37 10° W 20:27:00 36° SSW 20:32:21 10° SE
Okean 2 4.2 20:23:34 10° SSW 20:27:40 57° W 20:31:48 10° N
Cosmos 1743 4.2 20:25:23 10° NNW 20:28:57 38° W 20:32:29 10° SSW
FENGYUN 3A 3.7 20:26:01 10° SSE 20:31:23 82° ENE 20:36:47 10° N
CZ-2C R/B 1.4 20:31:17 13° SE 20:32:58 29° ENE 20:35:01 10° NNE
Cosmos 1602 Rocket 3.6 20:28:54 10° S 20:33:21 74° E 20:37:48 10° N
Cosmos 1603 4.3 20:30:37 10° SSW 20:36:10 62° WNW 20:41:43 10° NNE
Cosmos 2058 Rocket 4.0 20:37:22 10° NNW 20:41:34 48° W 20:45:44 10° SSW
USA 186 2.1 20:39:27 10° S 20:42:10 50° W 20:44:43 10° NNW
Cosmos 1513 Rocket 4.5 20:37:24 10° N 20:43:39 84° E 20:49:46 10° S
ALOS 2.6 20:39:41 10° S 20:44:18 66° W 20:48:58 10° NNW
Timation 1 Rocket 4.5 20:38:42 10° NNW 20:44:43 78° WSW 20:50:40 10° SSE
Lacrosse 4 Rocket 1.5 20:41:33 10° S 20:45:25 47° ESE 20:49:21 10° NE
Cosmos 1943 Rocket 4.3 20:45:16 10° NE 20:47:00 11° NE 20:48:43 10° ENE
Meteor 1-15 Rocket 4.5 20:42:13 10° NNW 20:47:50 72° W 20:53:30 10° S
Cosmos 1812 Rocket 3.8 20:44:17 10° N 20:48:35 51° E 20:52:17 14° SSE
Atlas Centaur 2 2.8 20:45:59 10° W 20:52:37 69° S 21:00:12 12° E
Cosmos 1943 3.1 20:49:45 10° SSW 20:55:23 75° ESE 21:01:05 10° NNE
SeaSat 1 4.1 20:52:49 12° E 20:55:49 19° NE 20:59:17 10° N
Tsikada Rocket 4.1 20:49:35 10° S 20:56:00 90° NW 21:02:24 10° N
ISS 0.1 20:54:35 10° NW 20:56:05 12° NNW 20:57:34 10° N
Cosmos 1992 Rocket 4.4 20:51:46 10° N 20:56:48 47° ENE 21:00:17 19° SE
H-2A R/B 2.1 20:53:23 14° SSE 20:56:58 67° ENE 21:01:19 10° N
Cosmos 2228 4.1 20:56:34 10° NNW 21:00:46 44° W 21:04:56 10° SSW
Cosmos 1238 4.0 21:01:42 11° S 21:04:44 89° ESE 21:07:45 10° N
deb Chang Zheng 4 4.1 21:03:32 10° N 21:07:52 63° WNW 21:12:09 10° SSW
Meteor 2-12 Rocket 4.4 21:02:56 10° N 21:08:59 67° E 21:13:42 17° SSE
Centaur D AC-28 3.0 21:10:55 10° WSW 21:13:59 22° SSW 21:15:06 20° S
USA 81 4.4 21:09:22 10° N 21:14:28 47° E 21:17:13 25° SE
Cosmos 1939 Rocket 2.9 21:12:46 22° SSE 21:15:26 84° ENE 21:19:35 10° N
CZ-4B R/B 3.9 21:11:17 10° NNE 21:16:12 44° E 21:19:12 22° SSE
Delta 168 4.3 21:15:16 10° SW 21:17:15 17° S 21:17:15 17° S
ATLAS 3B R/B 3.1 21:12:05 10° SSW 21:19:48 79° WNW 21:27:25 10° NNE
ARGOS 4.4 21:18:01 21° ESE 21:20:05 26° ENE 21:24:32 10° NNE
Cosmos 1190 Rocket 4.1 21:15:09 10° SSW 21:20:27 84° WNW 21:25:48 10° NNE
Cosmos 1346 Rocket 2.7 21:19:42 29° SSE 21:21:29 59° E 21:25:21 10° NNE
SPOT 5 2.6 21:21:02 30° SE 21:23:04 63° ENE 21:27:21 10° N
Cosmos 1953 Rocket 3.5 21:23:11 27° SSE 21:25:28 62° E 21:29:52 10° NNE
CZ-4 SHROUD 3.1 21:25:30 52° SSE 21:26:08 77° E 21:29:18 10° N
MetOp-B 4.4 21:24:19 28° SE 21:26:54 54° ENE 21:32:07 10° N
Cosmos 1140 Rocket 4.4 21:26:32 28° ESE 21:27:03 28° E 21:31:29 10° NE
PSLV R/B 3.0 21:26:38 57° SE 21:27:07 73° ENE 21:30:13 10° N
Cosmos 1634 Rocket 4.0 21:23:30 10° N 21:29:39 66° E 21:33:08 27° SSE
Cosmos 489 Rocket 4.4 21:24:52 10° SSW 21:31:13 85° ESE 21:37:37 10° NNE
H-2A R/B 3.8 21:33:42 15° ENE 21:34:39 16° ENE 21:37:37 10° NNE
Meteor 1-21 4.4 21:31:59 27° SSE 21:34:58 56° E 21:40:38 10° NNE
Cosmos 2346 Rocket 4.4 21:29:30 11° S 21:35:29 88° W 21:41:39 10° N
Cosmos 1607 4.3 21:32:57 27° SSE 21:35:34 39° ESE 21:41:18 10° NE
Cosmos 676 Rocket 3.9 21:32:59 12° SSW 21:37:58 82° ESE 21:43:18 10° NNE
ERS-1 Rocket 4.4 21:37:20 10° SSW 21:41:49 33° W 21:46:19 10° NW
Cosmos 2369 Rocket 2.1 21:36:26 10° NNW 21:42:06 88° WSW 21:44:34 35° SSE
SPOT 1/Viking Rocket 3.7 21:41:55 39° SE 21:43:31 54° ENE 21:48:32 10° N
YAOGAN 6 2.7 21:43:54 55° E 21:44:06 56° ENE 21:47:46 10° N
Cosmos 1932 4.3 21:38:27 10° SSW 21:44:37 84° ESE 21:50:51 10° NNE
Cosmos 2279 Rocket 4.2 21:42:06 10° N 21:48:12 52° E 21:50:14 38° SE
SL-08 RB Rocket 4.3 21:51:27 39° E 21:51:51 40° ENE 21:56:04 10° N
Cosmos 1766 3.4 21:51:20 10° N 21:55:14 60° ENE 21:55:14 60° ENE
Cosmos 1758 Rocket 3.8 21:57:13 35° SSW 21:58:57 64° W 22:03:16 10° N
Envisat 3.9 21:57:18 23° SSW 22:00:03 43° W 22:04:52 10° NNW
CZ-4C R/B 3.8 22:03:35 18° ENE 22:03:35 18° ENE 22:05:30 10° ENE
Cosmos 1758 4.5 22:02:34 10° NNE 22:05:36 33° NE 22:05:36 33° NE
USA 238 DEB 3.7 22:00:20 10° SSW 22:07:27 86° WNW 22:14:34 10° NNE
USA 238 3.7 22:00:26 10° SSW 22:07:34 86° WNW 22:14:40 10° NNE
SL-27 R/B 3.3 22:10:37 46° NNW 22:10:37 46° NNW 22:13:19 10° N
Cosmos 2180 Rocket 4.4 22:10:52 10° N 22:17:12 77° E 22:18:44 54° SSE
Cosmos 2263 4.5 22:12:09 10° NNW 22:17:41 60° WSW 22:19:04 47° SSW
Cosmos 1805 4.5 22:17:52 10° N 22:20:29 35° NNE 22:20:29 35° NNE
COSMOS 2406 3.2 22:21:23 39° SSW 22:23:37 79° WNW 22:29:22 10° NNE
Cosmos 1943 Rocket 2.0 22:25:51 10° NNW 22:31:26 88° WSW 22:31:53 77° S
DELTA 2 DEB (DPAF) 4.2 22:32:10 74° NW 22:32:10 74° NW 22:36:18 10° NNW
SeaSat 1 2.9 22:32:37 47° SW 22:32:58 48° WSW 22:37:45 10° NW
Cosmos 2084 4.0 22:30:10 10° NNW 22:33:35 57° N 22:33:35 57° N
CZ-4C R/B 4.0 22:36:09 55° NW 22:36:09 55° NW 22:39:25 10° NNW
Cosmos 1656 Rocket 4.1 22:32:43 10° N 22:38:12 48° ENE 22:38:15 48° ENE
Landsat 7 3.9 22:41:38 72° NW 22:41:38 72° NW 22:46:01 10° NNW
NOSS 3-2 (C) 3.9 22:43:08 45° ENE 22:43:08 45° ENE 22:48:05 10° NE
Atlas Centaur 2 3.0 22:34:56 10° W 22:42:15 55° SSW 22:42:50 54° S
Cosmos 2208 Rocket 4.1 22:38:38 10° NNW 22:43:24 68° NE 22:43:24 68° NE
Cosmos 1741 Rocket 4.5 22:49:48 52° WSW 22:50:31 57° WNW 22:55:46 10° N
Cosmos 1092 Rocket 3.8 22:51:45 79° SE 22:52:06 83° E 22:58:24 10° N
Cosmos 1953 3.8 22:50:14 10° NNW 22:52:53 35° NW 22:52:53 35° NW
Geosat 4.5 22:50:24 10° NNE 22:55:19 56° WNW 22:55:56 53° W
Terra 2.3 22:57:55 59° NNW 22:57:55 59° NNW 23:01:50 10° NNW
Spot 4 4.3 22:58:56 57° N 22:58:56 57° N 23:02:44 10° N
Nadezhda 4 Rocket 4.3 22:58:24 52° SW 22:59:37 62° W 23:05:54 10° N
ARGOS 4.3 22:59:31 32° WSW 23:00:07 33° W 23:05:00 10° NW
H-2A R/B 2.8 23:14:20 45° WNW 23:14:20 45° WNW 23:18:28 10° NNW
NOSS 3-2 (A) 3.8 23:22:46 55° W 23:23:39 61° WNW 23:30:07 10° NNE
USA 234 3.1 23:24:29 76° WSW 23:24:29 76° WSW 23:30:55 10° NW
Cosmos 1655 Rocket 4.1 23:33:11 74° N 23:33:11 74° N 23:38:50 10° N
Cosmos 2344 3.8 23:35:51 54° E 23:35:51 54° E 23:42:58 10° NE
Timation 2 Rocket 4.2 23:37:11 73° NE 23:37:11 73° NE 23:43:22 10° NNE
Cosmos 2026 Rocket 4.1 23:39:36 67° NNW 23:39:36 67° NNW 23:44:57 10° N
CZ-4C R/B 3.3 23:48:42 36° WNW 23:49:12 37° NW 23:54:36 10° NNE
